Погода в Ардатове

Россия / Республика Мордовия     54°45′39″N   46°16′02″E
темп.,
°C
ветер,
м/с
пор.,
м/с
влажн.,
%
обл.,
%
осадки,
мм/ч
давл.,
гПа
погр.,
м
29 июня, ср
ср2900:00+9ссз22725 0.0 102014
03:00+7с22803 0.0 102113
06:00+10с377111 0.0 1022325
09:00+14ссв35636 0.0 1021920
12:00+17с455534 0.0 10211602
15:00+18с455216 0.0 10191778
18:00+17ссз35644 0.0 1018390
21:00+12зсз22775 0.0 101822
30 июня, чт
чт3000:00+10з22880 0.0 101818
03:00+9з338687 0.0 101734
06:00+11з377799 0.0 1016206
09:00+17сз5758100 0.0 1015815
12:00+19ссз574999 0.0 10142192
15:00+20ссз674839 0.0 10132219
18:00+18сз366299 0.0 1011256
21:00+12ссв51187100 0.9 1013355
1 июля, пт
пт100:00+10ссв389186 0.0 1013247
03:00+8с389173 0.0 1014193
06:00+8ссв510835 0.0 1015533
09:00+11ссв81067100 0.1 10151464
12:00+14с7957100 0.7 10152017
15:00+13с896978 1.1 10151335
18:00+14ссв712775 0.2 10141137
21:00+13с615758 0.3 1015682
2 июля, сб
сб200:00+13с6147052 0.0 1015583
03:00+10с412795 0.0 1015280
06:00+12с512755 0.0 1015359
09:00+17с585997 0.0 1015702
12:00+20с564921 0.0 10141767
15:00+21с564952 0.0 10122041
18:00+18ссз37725 0.0 1012497
21:00+14с118440 0.0 101210
3 июля, вс
вс300:00+14сз1181100 0.0 101211
03:00+13с118497 0.0 101213
06:00+14с2479100 0.0 1012188
09:00+16с357844 0.0 1012533
12:00+19ссз5666100 0.0 10121279
15:00+19ссз5768100 0.1 10121208
18:00+19с37690 0.0 1012651
21:00+15з2280100 0.0 101213